Starlink 35601

operational
NORAD ID: 66149 Int'l Des: 2025-240 Owner: SPXS Country: US Constellation: starlink
LEOCIRCULAR

Starlink 35601について

説明を読み込み中...

リアルタイム位置

3D地球を読み込み中...

次回通過

高度履歴

Altitude vs Time

uPlot chart will show altitude changes over time

軌道要素

1 66149C 25240E 25298.74284722 .00654180 00000+0 10670-2 0 2982
2 66149 53.1581 338.8141 0009098 270.6751 324.1368 16.01844407 16
Epoch: Oct 25, 2025 • Age: 157 hours

現在のステータス

高度 255.8 km
速度 7.76 km/s
衛星直下点 -47.07°S, 49.49°W
打ち上げ日 Oct 25, 2025
運用期間 5 days
タイプ internet

技術仕様

分類 Payload
質量 575.00 kg
乾燥質量 530.00 kg
総質量 575.00 kg
長さ 0.30 m
直径 4.10 m
スパン 29.00 m
形状 Box + pan
製造者 SPXS
バスタイプ Starlink V2MO
フェーズステータス In Orbit
所有者/国 SPXS/US

大規模コンステレーション

Loading constellations...